Location: *
(12.5665°N, 8.3471°E)
Time: 08:21:46
(UTC+00:00)

Meteor 2-4 Rocket - Pass Details

Date: 23 September 2019
Orbit: 799 x 908 km, 81.2° (Epoch: 19 October)

Event Time Altitude Azimuth Distance (km) Brightness Sun altitude
Rises 04:36:23 0° 191° (S) 3,353 6.7 -10.4°
Reaches altitude 10° 04:38:49 10° 194° (SSW) 2,406 5.9 -9.8°
Maximum altitude 04:44:12 66° 276° (W) 874 3.6 -8.5°
Drops below altitude 10° 04:49:30 10° 358° (N) 2,369 6.1 -7.2°
Sets 04:51:53 0° 1° (N) 3,297 6.8 -6.7°
